EST,Max TemperatureF,Mean TemperatureF,Min TemperatureF,Max Dew PointF,MeanDew PointF,Min DewpointF,Max Humidity, Mean Humidity, Min Humidity, Max Sea Level PressureIn, Mean Sea Level PressureIn, Min Sea Level PressureIn, Max VisibilityMiles, Mean VisibilityMiles, Min VisibilityMiles, Max Wind SpeedMPH, Mean Wind SpeedMPH, Max Gust SpeedMPH,PrecipitationIn, CloudCover, Events, WindDirDegrees
2012-11-1,40,37,34,37,35,33,100,93,85,29.72,29.64,29.55,10,9,4,21,13,28,0.06,8,Rain,252
2012-11-2,38,35,32,34,32,28,100,91,82,29.94,29.79,29.66,10,9,2,18,11,25,0.04,8,Snow,279
2012-11-3,38,35,32,31,29,26,92,78,64,30.09,30.00,29.89,10,10,6,17,10,23,T,8,,291
2012-11-4,35,33,31,27,25,22,75,69,63,30.10,30.08,30.07,10,10,10,14,7,17,0.00,8,,308
2012-11-5,34,32,30,25,22,19,78,67,56,30.18,30.12,30.07,10,10,10,12,5,16,0.00,8,,333
2012-11-6,42,34,26,21,20,18,75,60,45,30.16,30.09,30.02,10,10,10,14,6,20,0.00,3,,109
2012-11-7,41,33,24,21,17,11,81,56,30,30.04,30.00,29.96,10,10,10,12,7,15,0.00,0,,49
2012-11-8,44,34,24,26,22,18,88,62,36,30.15,30.09,30.02,10,10,10,16,8,21,0.00,1,,313
2012-11-9,48,40,32,32,30,27,89,74,58,30.25,30.18,30.09,10,10,9,15,6,20,0.00,4,,256
2012-11-10,58,46,34,41,36,30,93,72,50,30.31,30.25,30.20,10,6,2,10,3,13,0.03,6,Rain,120
2012-11-11,68,56,44,35,33,31,62,45,28,30.37,30.30,30.24,10,10,10,15,7,20,0.00,0,,153
2012-11-12,67,50,33,49,41,31,89,68,47,30.25,30.16,29.99,10,8,4,28,12,39,0.35,5,Rain-Snow,221
2012-11-13,34,32,29,32,25,22,92,78,64,30.54,30.38,30.23,10,10,2,21,8,28,0.01,7,Snow,287
2012-11-14,40,34,28,22,21,20,75,60,44,30.58,30.51,30.44,10,10,10,9,5,14,0.00,4,,56
2012-11-15,45,35,24,23,22,20,81,63,45,30.40,30.35,30.31,10,10,10,12,5,16,0.00,0,,99
2012-11-16,48,38,28,25,24,22,78,60,41,30.50,30.40,30.32,10,10,10,10,3,14,0.00,0,,4
2012-11-17,49,38,26,30,25,23,92,69,45,30.62,30.56,30.50,10,10,8,7,3,9,0.00,0,,85
2012-11-18,50,39,28,29,27,24,85,62,39,30.60,30.54,30.48,10,10,10,15,8,18,0.00,0,,104
2012-11-19,48,39,29,32,29,27,92,73,53,30.47,30.38,30.23,10,8,2,12,6,15,0.00,0,,98
2012-11-20,51,40,28,33,28,25,92,66,39,30.21,30.16,30.10,10,9,5,7,2,8,0.00,1,,54
2012-11-21,56,43,29,31,24,17,85,56,26,30.23,30.20,30.14,10,10,10,7,1,8,0.00,0,,34
2012-11-22,57,44,31,30,25,21,69,51,32,30.26,30.18,30.04,10,10,10,13,3,16,0.00,0,,181
2012-11-23,49,39,29,43,30,21,92,67,42,30.03,29.84,29.72,10,9,4,30,12,39,0.01,6,Snow,229
2012-11-24,30,28,26,23,22,19,81,78,75,30.01,29.92,29.83,10,7,2,24,15,32,T,8,Snow,268
2012-11-25,32,29,25,21,20,18,88,76,63,29.99,29.93,29.82,10,7,1,18,10,24,T,8,Snow,239
2012-11-26,39,33,26,25,23,21,85,69,52,30.21,30.12,29.96,10,10,7,14,6,18,0.00,5,,269
2012-11-27,32,29,25,28,25,17,92,75,58,30.28,30.20,30.15,10,5,1,8,3,13,0.04,8,Snow,338
2012-11-28,36,31,25,20,19,17,75,61,47,30.32,30.26,30.18,10,10,10,21,10,28,0.00,6,,257
2012-11-29,41,32,22,23,19,17,88,63,38,30.38,30.32,30.29,10,9,5,17,8,22,0.00,0,,235
2012-11-30,46,37,27,26,22,18,75,58,41,30.32,30.28,30.23,10,10,10,12,4,16,0.00,5,,119